JBU511 KJFK-KLAS

Flight info

Callsign JBU511
Flight time N/A
Altitude 28000
Route COATE Q436 RAAKK CRL JOT J146 IOW SINGR OVR/N0460F300 HCT CHESZ GGAPP CHOWW
Aircraft A321/M-SDE3FGHIRWY/LB1

Departure

Time 2026-05-05 12:39
Airport John F. Kennedy International Airport (KJFK)

Arrival

Time N/A
Airport Harry Reid International Airport (KLAS)
Time Latitude Longitude Altitude Speed Heading
2026-05-05 11:25 40.64818 -73.77824 23 ft 0 kts 211°
2026-05-05 12:22 40.64826 -73.77818 24 ft 4 kts 211°
2026-05-05 12:22 40.64846 -73.77803 23 ft 4 kts 213°
2026-05-05 12:23 40.64859 -73.77782 26 ft 4 kts 282°
2026-05-05 12:23 40.64849 -73.77753 23 ft 3 kts 301°
2026-05-05 12:23 40.64836 -73.77725 22 ft 2 kts 301°
2026-05-05 12:23 40.64825 -73.77700 23 ft 2 kts 301°
2026-05-05 12:24 40.64824 -73.77699 24 ft 0 kts 301°
2026-05-05 12:27 40.64831 -73.77714 24 ft 4 kts 301°
2026-05-05 12:27 40.64852 -73.77754 22 ft 5 kts 313°
2026-05-05 12:27 40.64880 -73.77763 22 ft 3 kts 346°
2026-05-05 12:28 40.64902 -73.77783 22 ft 4 kts 318°
2026-05-05 12:28 40.64928 -73.77807 22 ft 5 kts 345°
2026-05-05 12:28 40.64964 -73.77792 21 ft 8 kts 31°
2026-05-05 12:28 40.64970 -73.77728 20 ft 8 kts 117°
2026-05-05 12:29 40.64944 -73.77670 21 ft 7 kts 120°
2026-05-05 12:29 40.64918 -73.77610 20 ft 9 kts 120°
2026-05-05 12:29 40.64882 -73.77531 20 ft 11 kts 121°
2026-05-05 12:29 40.64841 -73.77441 22 ft 12 kts 121°
2026-05-05 12:30 40.64799 -73.77347 23 ft 12 kts 121°
2026-05-05 12:30 40.64760 -73.77263 23 ft 8 kts 122°
2026-05-05 12:30 40.64758 -73.77196 22 ft 8 kts 68°
2026-05-05 12:30 40.64788 -73.77141 23 ft 7 kts 53°
2026-05-05 12:31 40.64822 -73.77079 21 ft 12 kts 54°
2026-05-05 12:31 40.64875 -73.76979 19 ft 14 kts 55°
2026-05-05 12:31 40.64917 -73.76901 21 ft 8 kts 54°
2026-05-05 12:31 40.64951 -73.76840 23 ft 9 kts 53°
2026-05-05 12:32 40.64986 -73.76775 22 ft 8 kts 61°
2026-05-05 12:32 40.64979 -73.76711 21 ft 7 kts 122°
2026-05-05 12:32 40.64960 -73.76658 21 ft 6 kts 96°
2026-05-05 12:32 40.64981 -73.76619 21 ft 5 kts 32°
2026-05-05 12:33 40.65016 -73.76592 21 ft 7 kts 30°
2026-05-05 12:33 40.65062 -73.76556 22 ft 9 kts 30°
2026-05-05 12:33 40.65103 -73.76506 21 ft 7 kts 64°
2026-05-05 12:33 40.65094 -73.76459 22 ft 5 kts 122°
2026-05-05 12:34 40.65090 -73.76450 23 ft 0 kts 122°
2026-05-05 12:37 40.65073 -73.76415 23 ft 9 kts 122°
2026-05-05 12:37 40.65039 -73.76358 22 ft 7 kts 151°
2026-05-05 12:37 40.65000 -73.76374 22 ft 2 kts 210°
2026-05-05 12:38 40.64999 -73.76374 22 ft 0 kts 211°
2026-05-05 12:38 40.64996 -73.76377 22 ft 4 kts 210°
2026-05-05 12:38 40.64788 -73.76538 22 ft 70 kts 211°
2026-05-05 12:38 40.64189 -73.77008 23 ft 128 kts 211°
2026-05-05 12:39 40.63277 -73.77723 38 ft 175 kts 210°
2026-05-05 12:39 40.62221 -73.78558 649 ft 174 kts 210°
2026-05-05 12:39 40.61179 -73.79325 1438 ft 170 kts 212°
2026-05-05 12:39 40.60076 -73.80021 1951 ft 183 kts 211°
2026-05-05 12:40 40.58857 -73.80730 2358 ft 200 kts 209°
2026-05-05 12:40 40.57545 -73.81449 2698 ft 212 kts 205°
2026-05-05 12:40 40.55985 -73.81598 2870 ft 242 kts 174°
2026-05-05 12:40 40.54391 -73.80563 3092 ft 272 kts 143°
2026-05-05 12:41 40.53280 -73.78524 3560 ft 287 kts 114°
2026-05-05 12:41 40.52951 -73.75921 4125 ft 295 kts 86°
2026-05-05 12:41 40.53518 -73.73333 4698 ft 298 kts 59°
2026-05-05 12:41 40.54739 -73.71124 5274 ft 299 kts 49°
2026-05-05 12:42 40.56091 -73.69044 5889 ft 300 kts 47°
2026-05-05 12:42 40.57475 -73.66970 6477 ft 302 kts 47°
2026-05-05 12:42 40.58880 -73.64887 7020 ft 305 kts 47°
2026-05-05 12:42 40.60295 -73.62792 7583 ft 308 kts 47°
2026-05-05 12:43 40.61725 -73.60679 8107 ft 311 kts 47°
2026-05-05 12:43 40.63175 -73.58549 8657 ft 314 kts 47°
2026-05-05 12:43 40.64689 -73.56459 9203 ft 316 kts 37°
2026-05-05 12:43 40.65917 -73.55446 9547 ft 315 kts 19°
2026-05-05 12:44 40.68025 -73.54795 10029 ft 312 kts
2026-05-05 12:44 40.70241 -73.54625 10210 ft 327 kts 358°
2026-05-05 12:44 40.72577 -73.54524 10342 ft 344 kts 357°
2026-05-05 12:44 40.75842 -73.54410 10503 ft 366 kts 357°
2026-05-05 12:45 40.77593 -73.54355 10584 ft 376 kts 357°
2026-05-05 12:45 40.80260 -73.54277 10758 ft 389 kts 357°
2026-05-05 12:45 40.83886 -73.54169 11315 ft 396 kts 357°
2026-05-05 12:45 40.85752 -73.54107 11657 ft 397 kts 357°
2026-05-05 12:46 40.88520 -73.54009 12195 ft 399 kts 357°
2026-05-05 12:46 40.91279 -73.54167 12712 ft 394 kts 344°
2026-05-05 12:46 40.93850 -73.55283 13242 ft 386 kts 327°
2026-05-05 12:46 40.96012 -73.57294 13768 ft 377 kts 311°
2026-05-05 12:47 40.97611 -73.59991 14232 ft 371 kts 295°
2026-05-05 12:47 40.98755 -73.62996 14675 ft 371 kts 292°
2026-05-05 12:47 40.99902 -73.66076 15118 ft 375 kts 292°
2026-05-05 12:47 41.01066 -73.69182 15545 ft 378 kts 293°
2026-05-05 12:48 41.01599 -73.70598 15745 ft 380 kts 293°
2026-05-05 12:48 41.01601 -73.70604 15746 ft 380 kts 293°
2026-05-05 12:48 41.02791 -73.73763 15937 ft 381 kts 293°
2026-05-05 12:48 41.03980 -73.76921 16376 ft 384 kts 293°
2026-05-05 12:49 41.05174 -73.80100 16812 ft 388 kts 293°
2026-05-05 12:49 41.06378 -73.83315 17225 ft 391 kts 293°
2026-05-05 12:49 41.07585 -73.86554 17657 ft 394 kts 293°
2026-05-05 12:49 41.08804 -73.89823 18065 ft 397 kts 293°
2026-05-05 12:50 41.10034 -73.93114 18443 ft 399 kts 293°
2026-05-05 12:50 41.11251 -73.96373 19171 ft 390 kts 293°
2026-05-05 12:50 41.12436 -73.99554 19707 ft 388 kts 293°
2026-05-05 12:50 41.13633 -74.02775 20126 ft 390 kts 292°
2026-05-05 12:51 41.14832 -74.06008 20519 ft 391 kts 292°
2026-05-05 12:51 41.16023 -74.09264 20888 ft 392 kts 290°
2026-05-05 12:51 41.16873 -74.12689 21237 ft 390 kts 277°
2026-05-05 12:51 41.17012 -74.16256 21565 ft 388 kts 262°
2026-05-05 12:52 41.16418 -74.19735 21893 ft 388 kts 252°
2026-05-05 12:52 41.15631 -74.23177 22229 ft 390 kts 252°
2026-05-05 12:52 41.14827 -74.26628 22556 ft 393 kts 252°
2026-05-05 12:52 41.14008 -74.30092 22883 ft 394 kts 252°
2026-05-05 12:53 41.13183 -74.33574 23206 ft 396 kts 252°
2026-05-05 12:53 41.12355 -74.37066 23524 ft 398 kts 252°
2026-05-05 12:53 41.12091 -74.38185 23627 ft 398 kts 252°
2026-05-05 12:53 41.11384 -74.41186 23923 ft 398 kts 252°
2026-05-05 12:54 41.09728 -74.48216 24462 ft 401 kts 252°
2026-05-05 12:54 41.08895 -74.51756 24707 ft 403 kts 252°
2026-05-05 12:54 41.08058 -74.55311 24948 ft 405 kts 252°
2026-05-05 12:55 41.07216 -74.58884 25183 ft 408 kts 252°
2026-05-05 12:55 41.06365 -74.62481 25429 ft 410 kts 252°
2026-05-05 12:55 41.05507 -74.66091 25660 ft 412 kts 252°
2026-05-05 12:55 41.04642 -74.69716 25884 ft 414 kts 252°
2026-05-05 12:56 41.03768 -74.73363 26123 ft 416 kts 252°
2026-05-05 12:56 41.02890 -74.77026 26351 ft 418 kts 252°
2026-05-05 12:56 41.02008 -74.80707 26572 ft 420 kts 252°
2026-05-05 12:56 41.01124 -74.84402 26790 ft 422 kts 252°
2026-05-05 12:57 41.00234 -74.88115 27008 ft 424 kts 251°
2026-05-05 12:57 40.99339 -74.91837 27219 ft 426 kts 251°
2026-05-05 12:57 40.98438 -74.95578 27426 ft 428 kts 252°
2026-05-05 12:57 40.97534 -74.99335 27644 ft 429 kts 252°
2026-05-05 12:58 40.96624 -75.03106 27862 ft 431 kts 251°
2026-05-05 12:58 40.95716 -75.06848 28083 ft 433 kts 252°
2026-05-05 12:58 40.94792 -75.10640 28310 ft 434 kts 252°
2026-05-05 12:58 40.93864 -75.14455 28535 ft 436 kts 252°
2026-05-05 12:59 40.93549 -75.15749 28605 ft 437 kts 252°
2026-05-05 12:59 40.92870 -75.18572 28751 ft 438 kts 252°
2026-05-05 13:00 40.91020 -75.26237 29362 ft 437 kts 252°
2026-05-05 13:00 40.90087 -75.30060 29679 ft 437 kts 251°
2026-05-05 13:01 40.87271 -75.41503 30466 ft 436 kts 251°
2026-05-05 13:01 40.86332 -75.45311 30740 ft 435 kts 252°
2026-05-05 13:01 40.85398 -75.49099 30919 ft 434 kts 252°
2026-05-05 13:01 40.84464 -75.52882 31195 ft 432 kts 252°
2026-05-05 13:02 40.83532 -75.56653 31468 ft 431 kts 252°
2026-05-05 13:02 40.82602 -75.60412 31719 ft 430 kts 252°
2026-05-05 13:02 40.81671 -75.64168 31874 ft 431 kts 252°
2026-05-05 13:02 40.80742 -75.67912 31916 ft 428 kts 252°
2026-05-05 13:03 40.78900 -75.75328 31688 ft 427 kts 252°
2026-05-05 13:03 40.77975 -75.79042 31967 ft 428 kts 252°
2026-05-05 13:03 40.77047 -75.82768 31920 ft 426 kts 252°
2026-05-05 13:04 40.75189 -75.90192 31915 ft 426 kts 252°
2026-05-05 13:04 40.73328 -75.97610 31927 ft 426 kts 252°
2026-05-05 13:05 40.71454 -76.05025 31938 ft 426 kts 252°
2026-05-05 13:05 40.69582 -76.12434 31941 ft 426 kts 252°
2026-05-05 13:06 40.67761 -76.19848 31951 ft 425 kts 257°
2026-05-05 13:06 40.67287 -76.27563 31955 ft 424 kts 275°
2026-05-05 13:07 40.68333 -76.35212 31952 ft 424 kts 281°
2026-05-05 13:07 40.69472 -76.42853 31953 ft 425 kts 280°
2026-05-05 13:08 40.70604 -76.50509 31957 ft 426 kts 280°
2026-05-05 13:08 40.71741 -76.58166 31958 ft 425 kts 281°
2026-05-05 13:09 40.72867 -76.65774 31948 ft 425 kts 281°
2026-05-05 13:09 40.73988 -76.73422 31936 ft 425 kts 281°
2026-05-05 13:10 40.75099 -76.81075 31919 ft 425 kts 281°
2026-05-05 13:10 40.76200 -76.88729 31917 ft 424 kts 281°
2026-05-05 13:11 40.77085 -76.94865 31914 ft 424 kts 281°
2026-05-05 13:11 40.78188 -77.02500 31915 ft 423 kts 281°
2026-05-05 13:12 40.79280 -77.10122 31910 ft 423 kts 281°